Powrót do katalogu

STARLINK-6251

AktywnyŁącznośćVLEO
NORAD 57087·PAYLOAD·🇺🇸 United States

Wystrzelony Jun 22, 2023 z Vandenberg Space Force Base

Loading…

Następne Przeloty (najbliższe 24 godziny)

TLE

ŚwieżeSource: CelesTrak SupGP

Epoka: Sep 14, 2026, 20:55 UTC

1 57087C 23088AR  26257.87201389 -.00115040  00000+0 -41665-2 0  2571
2 57087  43.0024 107.3803 0001620 268.9281 225.1218 15.27636706    14

Śledź STARLINK-6251 w czasie rzeczywistym z AllMySat

Download on the App Store